Location: Unspecified
(33.9239°N, 118.0544°W)
Time: 14:05:10
(UTC-08:00)

Cosmos 1674 - Visible Passes

Search period start: 18 January 2017 00:00
Search period end: 28 January 2017 00:00
Orbit: 500 x 523 km, 82.5° (Epoch: 18 January)

Date Brightness Start Highest point End Pass type
(mag) Time Alt. Az. Time Alt. Az. Time Alt. Az.
18 Jan 5.1 04:44:04 16° SSE 04:44:04 16° SSE 04:44:57 10° SSE visible
18 Jan 5.8 18:24:35 10° WSW 18:26:34 14° WNW 18:28:33 10° NW visible
19 Jan 5.6 18:07:37 10° WSW 18:10:12 17° WNW 18:12:49 10° NNW visible
20 Jan 5.3 17:50:50 10° SW 17:53:51 22° WNW 17:56:53 10° NNW visible
21 Jan 4.9 17:34:12 10° SW 17:37:31 28° W 17:40:52 10° NNW visible
